Regional Weather Roundup
Issued by NWS Goodland, KS

Home | Current Version | Previous Version | Text Only | Print | Product List | Glossary On
Versions: 1 2 3 4 5 6 7 8 9 10 11 12 13 14 15 16 17 18 19 20 21 22 23 24 25 26 27 28 29 30 31 32 33 34 35 36 37 38 39 40 41 42 43 44 45 46 47 48 49 50
000
ASUS43 KGLD 280808
RWRGLD

GOODLAND FORECAST AREA HOURLY WEATHER ROUNDUP
NATIONAL WEATHER SERVICE GOODLAND KS
200 AM MDT FRI APR 28 2017

...OFFICIAL OBSERVATIONS...

CITY           SKY/WX    TMP DP  RH WIND       PRES   REMARKS
GOODLAND KS    PTCLDY    37  35  92 W8        29.58F
HILL CITY KS   CLOUDY    46  46 100 E7        29.60F
IMPERIAL NEB   LGT RAIN  42  40  92 NE8       29.60F
MCCOOK NEB     LGT RAIN  43  43 100 E15       29.59F FOG
AKRON CO       CLOUDY    37  35  92 NW8       29.61F
BURLINGTON CO  NOT AVBL
LIMON CO       CLEAR     30  30 100 W8        29.62F
$$

...UNOFFICIAL OBSERVATIONS...

CITY           SKY/WX    TMP DP  RH WIND       PRES   REMARKS
LENORA KS        N/A     44  32  63 MISG        N/A
NORTON KS      CLOUDY    45  39  81 E10G18    29.59F
SHARON SPRINGS   N/A     37  35  93 NW5G12      N/A
KIT CARSON CO    N/A     36  32  87 MISG        N/A
$$




USA.gov is the U.S. government's official web portal to all federal, state and local government web resources and services.